SES-15

Last updated on Dec. 14, 2019, 4:30 a.m. UTC

1 42709U 17026A   19347.80674240  .00000075  00000-0  00000-0 0  9995
2 42709   0.0128 321.9313 0000906 264.0601  17.4932  1.00272676 10313
UTC
Height (km)
Latitude
Longitude
Inclination
Orbital Period
UTC large
Height (km)
Speed (km/s)
/
Latitude / Longitude
Inclination (degrees)
Orbital Period (minutes)
Azimuth
Elevation
Range (km)
Doppler Factor
iOS Compass Heading
iOS Angle

Next 30 passes for location: Hong Kong

Rise time Rise Azimuth (degrees) Set time Set Azimuth (degrees) Duration Max altitude (degrees)

No matching passes for this satellites